FENGYUN 1C DEB

Satellite information

Favourite Embed

Satellite Type and Status

DEBRISIN ORBIT

Key statistics

Satellite FENGYUN 1C DEB at a glance.

Uptime

9715

Days in orbit

Revolutions

≈ 14.2

Per day

Orbit

SSO

Sun Synchronous Orbit

Inclination

99.0

Latest

Satellite identification and parameters

Extended collection of information and parameters for FENGYUN 1C DEB.

Object identification

Identified? True

Debris? True

Object name: FENGYUN 1C DEB

International designator: 1999-025ASK

Object number (NORAD): 30725

Object ID (CCSDS): 30725

Country: PEOPLES REPUBLIC OF CHINA (PRC)

Current information (Y/N): Y

RCS size: SMALL

Orbital parameters

Period: 101.69 minutes

Inclination: 99.0073 deg

SMA: 7216.796 km

Apoapsis: 901.585 km

Periapsis: 775.737 km

RAAN: 55.9811 deg

Eccentricy: 0.00871913

Argument of periapsis: 29.2575 deg

Mean anomaly: 25.7099 deg

Mean motion: 14.16074475 rev/day

Mean motion (dot): 0.00003475 rev/day2

B* drag term: 0.0017171361 1/REarth

Two-line elements (TLE)

Creation date: Dec. 13, 2025, 5:47 p.m.

Reference frame: TEME

Reference center: EARTH

Epoch: Dec. 13, 2025, 3:49 a.m. UTC

TLE line 0: 0 FENGYUN 1C DEB

TLE line 1: 1 30725U 99025ASK 25347.15960459 .00003475 00000-0 17171-2 0 9990

TLE line 2: 2 30725 99.0073 55.9811 0087191 29.2575 25.7099 14.16074475963540

Live tracking on map

Real-time ground track for satellite FENGYUN 1C DEB.

In-orbit conjunctions

A list of the most updated potential collisions computed for object FENGYUN 1C DEB.

Target Orbit TCA Probability of collision Miss distance Type
BLITS SSO 2025-12-11 23:13:15 0.0001081316 553.0 (m) PAYLOAD
THOR ABLESTAR DEB LEO 2024-11-18 02:59:40 0.0004307629 71.0 (m) DEBRIS
METEOR 1-13 LEO 2024-06-06 07:37:20 0.0001941844 755.0 (m) PAYLOAD

Associated space launch

Chinese polar orbiting meteorological satellite

FENGYUN 1C DEB was lifted into orbit during the mission ‘Long March 4B | Feng Yun 1C’, on board a Long March 4B space rocket.

The launch took place on May 10, 1999, 1:33 a.m. from Launch Complex 7.

For more information about the launch, click the button.

Launch to space Long March 4B | Feng Yun 1C
Long March 4B | Feng Yun 1C

Agency: N/A

Status: Launch Successful

Launch date: May 10, 1999, 1:33 a.m. UTC

Rocket: Long March 4B

Launch pad: Launch Complex 7

Location: Taiyuan Satellite Launch Center, People's Republic of China

...

Latest news about this satellite

There are no fresh news available about this satellite. Check back as we update our databases every day.


Newsletter sign-up

Weekly statistics, charts and insights to help you stay on top of the space industry.